San Antonio Stinson, TX

10:14 PM CDT on May 25, 2017 (GMT -0500)
Stinson Municipal

Weather History for KSSF - September, 2012

Change the Weather History Date:

Tuesday, September 11, 2012

  Actual Average Record
Temperature  
Mean Temperature 80 °F -  
Max Temperature 93 °F 88 °F 100 °F (2000)
Min Temperature 68 °F 69 °F 66 °F (2011)
Cooling Degree Days 16    
Growing Degree Days 30 (Base 50)    
Moisture  
Dew Point 58 °F    
Average Humidity 53    
Maximum Humidity 78    
Minimum Humidity 19    
Precipitation  
Precipitation 0.00 in - - ()
Sea Level Pressure  
Sea Level Pressure 29.99 in    
Wind  
Wind Speed 5 mph (ESE)    
Max Wind Speed 17 mph    
Max Gust Speed 23 mph    
Visibility 10 miles    
Events      
Averages and records for this station are not official NWS values.
T = Trace of Precipitation, MM = Missing Value Source: NWS Daily Summary

Daily Weather History Graph

Daily Weather History Graph

Search for Another Location

Airport or City:

Trip Planner

Search our weather history database for the weather conditions in past years. The results will help you decide how hot, cold, wet, or windy it might be!

Date:

Astronomy

Sep. 11, 2012 Rise Set
Actual Time 7:16 AM CDT 7:43 PM CDT
Civil Twilight 6:52 AM CDT 8:07 PM CDT
Nautical Twilight 6:24 AM CDT 8:35 PM CDT
Astronomical Twilight 5:56 AM CDT 9:03 PM CDT
Moon 2:52 AM CDT (9/11) 4:39 PM CDT (9/11)
Length of Visible Light 13h 14m
Length of Day
12h 26m
Waning Crescent, 21% of the Moon is Illuminated
Sep 11
Waning Crescent
Sep 15
New
Sep 22
First Quarter
Sep 29
Full
Oct 8
Last Quarter

Hourly Weather History & Observations

Time (CDT) Temp. Heat Index Dew Point Humidity Pressure Visibility Wind Dir Wind Speed Gust Speed Precip Events Conditions
12:53 AM 73.0 °F - 60.1 °F 64% 30.03 in 10.0 mi SE 5.8 mph - N/A   Clear
1:53 AM 72.0 °F - 61.0 °F 68% 30.03 in 10.0 mi East 4.6 mph - N/A   Clear
2:53 AM 72.0 °F - 60.1 °F 66% 30.02 in 10.0 mi Calm Calm - N/A   Clear
3:53 AM 68.0 °F - 60.1 °F 76% 30.01 in 10.0 mi Calm Calm - N/A   Clear
4:53 AM 68.0 °F - 61.0 °F 78% 30.01 in 10.0 mi NE 3.5 mph - N/A   Clear
5:53 AM 68.0 °F - 61.0 °F 78% 30.02 in 10.0 mi NE 3.5 mph - N/A   Clear
6:53 AM 68.0 °F - 61.0 °F 78% 30.02 in 10.0 mi ENE 3.5 mph - N/A   Clear
7:53 AM 68.0 °F - 61.0 °F 78% 30.04 in 10.0 mi ENE 3.5 mph - N/A   Clear
8:53 AM 72.0 °F - 62.1 °F 71% 30.06 in 10.0 mi East 3.5 mph - N/A   Clear
9:53 AM 77.0 °F - 62.1 °F 60% 30.06 in 10.0 mi East 4.6 mph - N/A   Clear
10:53 AM 80.1 °F 81.1 °F 61.0 °F 52% 30.06 in 10.0 mi South 8.1 mph - N/A   Clear
11:53 AM 82.0 °F 82.1 °F 59.0 °F 45% 30.05 in 10.0 mi SE 5.8 mph - N/A   Clear
12:53 PM 87.1 °F 86.5 °F 59.0 °F 39% 30.02 in 10.0 mi ESE 8.1 mph 16.1 mph N/A   Clear
1:53 PM 88.0 °F 86.7 °F 57.0 °F 35% 29.99 in 10.0 mi Calm Calm - N/A   Clear
2:53 PM 88.0 °F 85.9 °F 54.0 °F 31% 29.96 in 10.0 mi Calm Calm - N/A   Clear
3:53 PM 91.0 °F - 46.0 °F 21% 29.93 in 10.0 mi Variable 3.5 mph - N/A   Clear
4:53 PM 91.9 °F - 44.1 °F 19% 29.92 in 10.0 mi SE 6.9 mph - N/A   Clear
5:53 PM 93.0 °F - 46.0 °F 20% 29.92 in 10.0 mi ESE 10.4 mph - N/A   Clear
6:53 PM 91.9 °F - 48.0 °F 22% 29.91 in 10.0 mi ESE 5.8 mph - N/A   Clear
7:53 PM 88.0 °F - 51.1 °F 28% 29.91 in 10.0 mi East 3.5 mph - N/A   Clear
8:53 PM 84.9 °F 84.8 °F 60.1 °F 43% 29.93 in 10.0 mi SE 10.4 mph - N/A   Clear
9:53 PM 82.0 °F 84.9 °F 68.0 °F 62% 29.96 in 10.0 mi SE 16.1 mph 23.0 mph N/A   Clear
10:53 PM 80.1 °F 82.9 °F 69.1 °F 69% 29.98 in 10.0 mi SE 17.3 mph - N/A   Clear
11:53 PM 79.0 °F - 70.0 °F 74% 29.99 in 10.0 mi ESE 11.5 mph - N/A   Clear